User: anonymous   Login
Location: Unspecified
(0.0000°N, 0.0000°E)
Time: 07:54:46
(UTC+00:00)
Language:

SIRIUSSAT-1 - Orbit

View from above orbital plane
View from above orbital plane
View from above satellite
View from above satellite

Ground track
Ground track

The orbit data is extracted from the following two-line orbital elements,

1 43595U 98067PG  20223.92332608 +.00041736 +00000-0 +24318-3 0  9990
2 43595 051.6291 010.5754 0002484 299.6651 060.4102 15.78001607113610
Epoch (UTC): 10 August 2020 22:09:35
Eccentricity: 0.0002484
inclination: 51.6291°
perigee height: 334 km
apogee height: 338 km
right ascension of ascending node: 10.5754°
argument of perigee: 299.6651°
revolutions per day: 15.78001607
mean anomaly at epoch: 60.4102°
orbit number at epoch: 11361

The dashed part of the orbit path shows where the satellite is in the earth's shadow,  

DLR